Regional Weather Roundup
Issued by NWS

Home | Current Version | Previous Version | Graphics & Text | Print | Product List | Glossary On
Versions: 1 2 3 4 5 6 7 8 9 10 11 12 13 14 15 16 17 18 19 20 21 22 23 24 25 26 27 28 29 30 31 32 33 34 35 36 37 38 39 40 41 42 43 44 45 46 47 48 49 50
295
ASUS43 KFSD 090302
RWRSD

WEATHER ROUNDUP FOR SOUTH DAKOTA
NATIONAL WEATHER SERVICE SIOUX FALLS SD
900 PM CST MON FEB 08 2016

NOTE: "FAIR" INDICATES FEW OR NO CLOUDS BELOW 12,000 FEET WITH NO
SIGNIFICANT WEATHER AND/OR OBSTRUCTIONS TO VISIBILITY.


SDZ001>005-009-010-012>017-090400-
NORTHWEST AND NORTH CENTRAL SOUTH DAKOTA

CITY           SKY/WX    TMP DP  RH WIND       PRES   REMARKS
BUFFALO          N/A     33  12  41 NW5       30.17F WCI  29
FAITH            N/A     32  13  45 N13       30.22S WCI  22
MOBRIDGE       CLOUDY    32  19  58 N13       30.19S WCI  22
$$

SDZ012>016-024>037-041>051-057-063-072>074-090400-
SOUTHWEST AND SOUTH CENTRAL SOUTH DAKOTA

CITY           SKY/WX    TMP DP  RH WIND       PRES   REMARKS
RAPID CTY ARPT CLOUDY    36  17  46 N6        30.23S
PIERRE         CLOUDY    30  18  60 NW10      30.21S WCI  21
CUSTER         CLOUDY    36  21  54 NW12G29   30.20F
ELLSWORTH AFB  CLOUDY    37  16  42 N6        30.21F
PHILIP         CLOUDY    35  19  52 NW10      30.24S WCI  27
PINE RIDGE     CLOUDY    33  21  61 CALM      30.24F
WINNER         CLOUDY    32  20  61 NW13      30.20S WCI  22
$$

SDZ004>011-016>023-039-040-090400-
NORTHEAST SOUTH DAKOTA

CITY           SKY/WX    TMP DP  RH WIND       PRES   REMARKS
ABERDEEN       CLEAR     22  11  62 N16       30.21R WCI   8
WATERTOWN      CLEAR     13   7  77 N17       30.11R WCI  -4
BROOKINGS      CLOUDY    14   9  80 N18       30.09S WCI  -3
SISSETON         N/A     11   6  81 N22       30.18R WCI  -8
$$

SDZ017-020-022-023-036>040-048>070-090400-
SOUTHEAST SOUTH DAKOTA

CITY           SKY/WX    TMP DP  RH WIND       PRES   REMARKS
SIOUX FALLS    MOCLDY    20  12  71 N16       30.10F WCI   6
HURON          CLEAR     22  13  68 N17       30.18R WCI   8
MITCHELL       CLEAR     24  15  68 N14       30.18R WCI  12
YANKTON        CLEAR     27  14  59 NW20      30.13S WCI  13
$$

ABBREVIATIONS USED IN REMARKS
   TC - TEMPERATURE IN CELSIUS
  WCI - WIND CHILL INDEX
   HX - HEAT INDEX
  VSB - VISIBILITY





USA.gov is the U.S. government's official web portal to all federal, state and local government web resources and services.